Regional Weather Roundup
Issued by NWS Lake Charles, LA

Home | Current Version | Previous Version | Text Only | Print | Product List | Glossary On
Versions: 1 2 3 4 5 6 7 8 9 10 11 12 13 14 15 16 17 18 19 20 21 22 23 24 25 26 27 28 29 30 31 32 33 34 35 36 37 38 39 40 41 42 43 44 45 46 47 48 49
000
ASUS44 KLCH 020810
RWRLCH
RWRLCH
REGIONAL WEATHER ROUNDUP
NATIONAL WEATHER SERVICE LAKE CHARLES LA
300 AM CDT SUN AUG 02 2015

Note: "fair" indicates few or no clouds below 12,000 feet with no
significant weather and/or obstructions to visibility.


ACROSS SOUTHEAST TEXAS

CITY           SKY/WX    TMP DP  RH WIND       PRES   REMARKS
BEAUMONT       CLEAR     75  69  81 N5        29.89F
BEAUMONT CITY    N/A     70  67  90 CALM      29.91S
ORANGE         SUNNY     70  70 100 CALM      29.92S
JASPER         CLEAR     71  65  83 CALM      29.94F
$$

ACROSS CENTRAL LOUISIANA

CITY           SKY/WX    TMP DP  RH WIND       PRES   REMARKS
LEESVILLE      CLEAR     76  60  57 NE5       29.90F
FULLERTON        N/A     68  62  81 CALM      29.90F
ALEXANDRIA INT CLEAR     67  66  97 CALM      29.90F
ESLER FIELD    CLEAR     68  64  87 CALM      29.92F
DERIDDER         N/A     69  65  86 CALM      29.94S
OAKDALE        SUNNY     65  63  94 CALM      29.91S
OPELOUSAS        N/A     68  68  99 CALM      29.90F
$$

ACROSS SOUTHWEST AND SOUTH CENTRAL LOUISIANA

CITY           SKY/WX    TMP DP  RH WIND       PRES   REMARKS
SULPHUR        SUNNY     71  67  85 CALM      29.91S
LAKE CHARLES   CLEAR     72  67  84 CALM      29.89F
CHENNAULT INT  CLEAR     73  66  77 N3        29.90F
CAMERON PHI    SUNNY     77  68  73 NE5       29.92S
DEQUINCY         N/A     67  65  93 CALM      29.91S
JENNINGS         N/A     72  68  88 CALM      29.89F
LAFAYETTE      CLEAR     73  70  90 CALM      29.89F
NEW IBERIA     CLEAR     73  69  87 CALM      29.89F
ABBEVILLE        N/A     70  68  94 CALM      29.89F
PATTERSON      CLEAR     73  72  94 CALM      29.90F
SALT POINT       N/A     77  73  87 MISG      29.87F
$$

SELECTED SITES ACROSS THE REGION

CITY           SKY/WX    TMP DP  RH WIND       PRES   REMARKS
HOUSTON BUSH   PTCLDY    75  68  78 CALM      29.91S
HOUSTON HOBBY  PTCLDY    78  70  76 CALM      29.90S
GALVESTON      CLEAR     85  70  60 CALM      29.91S
COLLEGE STAT   CLEAR     77  62  59 E3        29.92F
CONROE         CLEAR     68  63  84 N3        29.92F
HUNTSVILLE     CLEAR     71  63  75 CALM      29.93S
LUFKIN         CLEAR     71  63  75 CALM      29.92F
SHREVEPORT     PTCLDY    72  63  73 CALM      29.93F
MONROE         CLEAR     70  65  84 CALM      29.94S
NATCHEZ MS     CLEAR     70  64  83 CALM      29.93S
BATON ROUGE    CLEAR     71  68  90 CALM      29.90S
N.O. INTL ARPT CLEAR     78  68  71 CALM      29.88F
SLIDELL        CLEAR     69  67  93 CALM      29.88F
$$

MARINE REPORTS

STATION/POSITION TIME  TEMP    WIND        PRES    VSBY  WAVE
                       AIR SEA DIR/SP/G                  HT/PER
                 (UTC) (F)     (DEG/KT/KT) (MB)    (MI)  (FT/S)
BUOY 30 S HIGH I 0750   85 86     CALM     1012.0F         1/ 4
SEA RIM ST PARK  0800   79     330/  7/  7 1013.1S
PORT ARTHUR      0700      88     CALM     1012.5F
SABINE PASS N    0700   82 88   80/  6/  8 1012.6F
TEXAS POINT      NOT AVBL
CALCASIEU PASS   0700   80 87   90/  7/  7 1011.7F
LK CHARLES BEACH 0700   79 88                N/A
MARSH ISLAND     0700   85      60/  8/ 10   N/A           0
FRESH WATER LOCK 0700   80 87   30/  2/  5 1012.3F
AMERADA PASS     0700   79 86   50/  1/  3 1012.2F
$$


USA.gov is the U.S. government's official web portal to all federal, state and local government web resources and services.